Погода в Чесноковке

Россия / Оренбургская область     51°39′25″N   54°05′11″E
темп.,
°C
ветер,
м/с
пор.,
м/с
влажн.,
%
обл.,
%
осадки,
мм/ч
давл.,
гПа
погр.,
м
17 мая, вт
вт1723:00+11юз3107995 0.3 1004214
02:00+9юз3988100 0.1 1004201
05:00+8юз399341 0.1 1004214
08:00+10юз58825 0.0 1005427
11:00+14зюз796731 0.7 10051258
14:00+15зюз896042 2.0 10051579
17:00+16з7104882 2.8 10052731
20:00+13зюз485937 0.0 1006300
18 мая, ср
ср1823:00+10юз3978100 0.3 1006236
02:00+10юз51183100 1.3 1005473
05:00+8юз51091100 1.6 1004316
08:00+9юз598186 0.0 1005440
11:00+13зюз8105735 0.0 10051626
14:00+11зюз9137248 0.4 10051417
17:00+12зюз10146697 0.9 10061694
20:00+10зюз7107736 0.7 1007752
19 мая, чт
чт1923:00+8зюз512879 0.7 1009355
02:00+7з410908 0.0 1009270
05:00+5з22955 0.0 101125
08:00+9юз348277 0.0 1012298
11:00+10зюз4778100 0.0 1012385
14:00+15з7105475 0.2 10111726
17:00+13з796776 1.1 10111235
20:00+12з610687 0.3 1012709
20 мая, пт
пт2023:00+8зюз3378100 0.3 101348
02:00+7юз388348 0.0 1012200
05:00+6зюз398898 0.0 1012204
08:00+8зсз357794 0.0 1012330
11:00+9зсз3582100 0.3 1013515
14:00+11сз5565100 0.4 10121145
17:00+13з464986 0.5 10111949
20:00+11зюз356110 0.1 1010158
21 мая, сб
сб2123:00+6ссз5118982 0.1 1011371
02:00+5зсз258953 0.0 1010161
05:00+3зсз35922 0.0 1010128
08:00+6сз59751 0.0 1011617
11:00+9сз685674 0.1 10111704
14:00+11зсз674899 0.1 10112040
17:00+12сз674776 0.1 10111933
20:00+10зсз365866 0.0 1011368